Find GOES 16

NORAD ID: 41866 Int'l Des: 2016-071 Owner: NOAA Country: US operational
HEOCIRCULARGSO

Live Position

Loading 3D Globe...

About GOES 16

Description loading...

Upcoming Passes

Passes for default location (London). Set your location on the main map for personalized predictions.

Altitude History

Loading altitude history...

Two-Line Element Set

1 41866U 16071A 26110.48725088 -.00000092 00000-0 00000+0 0 9993
2 41866 0.1965 85.0950 0001658 241.3664 312.8280 1.00271135 34529
Epoch: Apr 20, 2026 • Age: 14 hours

Current Status

Altitude 35792.7 km
Velocity 3.07 km/s
Sub-Earth Point 0.11°N, 104.69°W
Launch Date Nov 19, 2016
Age 9.4 years
Type weather

Technical Details

Classification Payload
Mass 5192.00 kg
Dry Mass 2857.00 kg
Total Mass 5192.00 kg
Length 6.10 m
Diameter 3.90 m
Span 12.00 m
Shape Box + panel + boom
Manufacturer LMCSS
Bus Type A2100
Phase Status In Orbit
Owner/State NOAA/US

Most Searched